Погода в Юрино

Россия / Республика Марий Эл     56°17′14″N   46°17′29″E
В апреле 2022 года жителям России запретили посещать сайт meteo.paraplan.net по решению Генеральной прокуратуры. Аудитория сайта уменьшилась в 10 раз. Владельцы сайта не видят смысла в поддержке погодного сервера в таких условиях. Сайт будет закрыт в октябре.
темп.,
°C
ветер,
м/с
пор.,
м/с
влажн.,
%
обл.,
%
осадки,
мм/ч
давл.,
гПа
погр.,
м
4 октября, вт
вт400:00+13ююв61173100 0.0 1016666
03:00+12ююв51079100 0.0 1017565
06:00+11ююв5983100 0.0 1018595
09:00+12ююв5977100 0.0 1019513
12:00+13ююв5877100 0.0 1020901
15:00+12ююв5978100 0.0 1020674
18:00+10ююв5137187 0.0 1020494
21:00+10ююв51464100 0.0 1020482
5 октября, ср
ср500:00+11ююв61360100 0.0 1019609
03:00+10ююв61384100 0.3 1018663
06:00+9ююв61289100 0.8 1018583
09:00+10ююв61290100 1.9 1017720
12:00+11ю598592 0.7 1017653
15:00+12ююв598595 1.0 1017735
18:00+11ю4108786 1.5 1016359
21:00+8ю259332 1.8 1015113
6 октября, чт
чт600:00+9ю2890100 0.3 1014454
03:00+8юз4792100 2.3 1014468
06:00+6зюз3791100 0.1 1013273
09:00+7юз2489100 0.1 1013381
12:00+7з3586100 0.2 1014547
15:00+7з3686100 0.3 1015551
18:00+7зюз378796 0.1 1016415
21:00+7з389475 0.2 1017361
7 октября, пт
пт700:00+6зюз399018 0.0 1017295
03:00+4юз39905 0.0 1017188
06:00+4ююз41188100 0.0 1015280
09:00+7юз51287100 0.1 1014508
12:00+9з51292100 0.1 1014654
15:00+11з61182100 0.1 10151142
18:00+10з51278100 0.1 1017698
21:00+10з6137695 0.1 1018746
8 октября, сб
сб800:00+9з6118140 0.0 1020862
03:00+7з5129331 0.0 1021484
06:00+7зюз489236 0.0 1023468
09:00+9з488424 0.0 1024407
12:00+13зюз576722 0.0 1023889
15:00+13зюз47635 0.0 10221008
18:00+9юз38825 0.0 1022145
21:00+8юз411835 0.0 1022245